Temperature
19 18 18 18 18 18 18 17 17 17 17 16 16 16 16 16 15 15 15 15 15 15 15 15 15 15 15 15 15 15 15 15 15 15 15 14 14 14 14 13 13 13 13
18 18 18 18 18 18 17 17 17 17 16 16 16 16 15 15 15 15 15 15 15 15 15 15 15 15 15 15 15 15 15 15 14 14 14 14 14 13 13 13 13 13 13
18 18 18 18 17 17 17 17 16 16 16 16 15 15 15 15 15 15 14 14 14 14 14 14 14 14 14 14 14 14 14 14 14 14 14 14 14 13 13 13 13 13 13
18 18 17 17 17 17 17 17 16 16 16 15 15 15 15 15 14 14 14 14 14 14 14 14 14 14 14 14 14 14 14 14 14 14 14 14 14 13 13 13 13 13 13
17 18 17 17 17 17 16 16 16 15 15 15 15 14 14 14 14 14 14 14 14 14 14 14 14 14 14 14 14 14 14 14 14 14 14 13 13 13 13 13 13 13 13
17 17 17 17 16 16 16 16 16 15 15 15 15 14 14 14 14 14 14 14 13 13 13 13 13 13 14 14 14 14 13 13 13 13 13 13 13 13 13 13 13 13 12
17 16 16 16 16 16 16 15 15 15 15 15 14 14 14 14 14 14 14 13 13 13 13 13 13 13 13 13 13 13 13 13 13 13 13 13 13 12 12 12 12 12 12
16 16 16 16 16 15 15 15 15 15 14 14 14 14 14 14 14 14 13 13 13 13 13 13 13 13 13 13 13 13 13 13 13 13 12 12 12 12 12 12 12 12 12
16 16 15 15 15 15 15 14 14 14 14 14 13 13 13 13 13 13 13 13 13 13 13 13 13 13 13 13 13 12 12 12 12 12 12 12 12 12 12 12 12 12 12
16 15 15 15 15 15 15 14 14 14 14 13 13 13 13 13 13 13 13 13 13 13 13 12 13 13 12 12 12 12 12 12 12 12 12 12 12 12 12 11 11 12 12
15 15 15 15 14 14 14 14 14 13 13 13 13 13 13 13 13 13 13 12 12 13 13 12 12 12 12 12 12 12 12 12 12 12 12 12 12 11 11 11 11 11 11
15 15 14 14 14 14 14 14 13 13 13 12 12 12 13 12 13 13 13 12 12 12 12 12 12 12 12 12 12 12 12 12 12 12 12 12 11 11 11 11 11 11 11
14 14 14 14 14 13 13 13 13 13 13 13 12 12 13 12 12 12 12 12 12 12 12 12 12 12 12 12 12 12 12 11 11 11 11 11 11 11 11 11 11 11 11
13 14 14 13 13 13 13 13 13 13 13 13 12 12 12 12 12 12 12 12 12 12 12 12 12 12 12 11 12 11 11 11 11 11 11 11 11 10 10 10 10 10 10
13 13 13 13 13 12 12 12 12 12 12 12 12 12 12 12 12 12 12 12 11 12 11 11 11 11 11 11 11 11 11 11 11 11 11 11 10 10 10 10 10 10 10
13 13 12 12 12 12 12 12 12 12 12 12 12 12 11 11 12 12 12 11 11 11 11 11 11 11 11 11 11 11 11 11 11 10 10 10 10 10 10 10 10 10 10
12 12 12 12 12 12 12 12 12 12 12 11 12 12 12 11 11 11 11 11 11 11 11 11 11 11 11 11 11 11 11 10 10 10 10 10 10 10 10 10 10 10 10
12 12 12 12 12 12 12 12 12 11 11 11 11 11 11 11 11 11 11 11 11 10 10 10 11 11 11 11 10 10 10 10 10 10 10 10 10 10 10 10 10 9 9
12 11 11 11 11 11 11 11 11 11 11 11 11 11 11 11 11 11 10 10 10 10 10 10 10 10 10 10 10 10 10 10 9 9 9 9 9 9 9 9 9 9 9
11 11 11 11 11 11 11 11 11 11 11 11 11 11 10 10 10 10 10 10 10 10 10 10 10 10 10 10 10 9 9 9 9 9 9 9 9 9 9 9 9 9 9
11 11 11 11 11 11 11 11 11 10 10 10 10 10 10 10 10 10 10 10 9 9 9 9 9 9 9 9 9 9 9 9 9 9 9 9 8 9 9 9 9 9 9
11 11 11 11 10 10 10 10 10 10 10 10 10 10 9 9 10 10 9 9 9 9 9 9 9 9 9 9 9 9 9 9 9 8 8 8 8 8 8 9 9 9 9
10 10 10 10 10 10 10 10 10 10 10 10 10 9 9 9 9 9 9 9 9 9 9 9 9 9 9 8 8 8 8 8 8 8 8 8 8 8 8 8 8 8 8
10 10 10 10 10 10 10 10 10 9 9 9 9 9 9 9 9 9 9 9 9 8 8 8 8 8 8 8 8 8 8 8 8 8 7 7 8 8 8 8 8 8 8
10 10 10 10 10 10 10 9 9 9 9 9 9 9 9 9 9 8 8 8 8 8 8 8 8 8 8 8 7 8 8 8 8 8 7 7 7 7 7 7 7 8 8
10 10 10 10 10 9 9 9 9 9 9 9 8 8 8 8 8 8 8 8 8 8 8 7 7 7 7 7 7 7 7 7 7 7 7 7 7 7 7 7 7 7 7
Wind_Speed
8 8 7 6 5 5 4 4 3 2 2 3 3 2 3 3 2 3 3 3 3 3 3 3 4 4 3 3 3 3 3 3 3 2 0 1 2 1 1 1 2 2 3
7 7 7 6 6 5 4 4 3 2 2 2 3 3 3 2 2 3 3 3 3 3 3 3 3 2 3 3 3 3 2 2 3 2 1 1 2 2 1 2 1 1 1
6 7 7 6 6 5 4 3 3 3 2 2 2 3 3 2 2 3 3 3 3 3 3 2 3 2 3 2 3 3 3 3 2 3 2 1 1 1 1 2 1 1 2
6 6 6 6 5 5 4 3 3 3 3 3 2 2 2 2 3 3 2 2 2 2 2 2 2 2 3 3 3 3 3 2 3 3 3 2 2 2 2 2 1 1 2
6 6 5 5 5 5 4 4 3 3 3 2 2 2 2 2 2 2 3 3 3 3 2 2 2 1 1 2 3 2 3 3 3 3 3 2 2 2 2 2 2 2 2
5 5 5 5 5 4 4 4 3 3 2 2 2 2 2 1 3 3 3 3 3 3 2 2 2 2 2 3 2 2 3 4 4 3 3 3 2 2 2 3 2 2 2
5 5 5 5 4 4 4 3 3 3 2 2 2 2 2 1 3 0 2 2 2 2 2 2 2 1 2 2 3 5 3 3 4 4 4 4 3 2 2 3 2 3 3
5 4 4 4 4 4 4 3 3 3 2 2 2 1 1 1 3 1 2 3 2 2 1 1 1 1 1 2 2 2 2 2 3 4 3 4 3 2 3 3 3 3 3
5 4 4 4 4 4 3 3 3 2 2 2 2 2 2 1 2 2 4 2 2 1 1 0 0 0 2 3 2 2 2 2 2 3 2 2 1 2 4 3 3 4 3
5 4 4 3 3 3 3 3 2 2 2 2 2 2 2 2 2 2 4 2 2 2 2 2 2 1 2 4 2 2 2 1 1 1 2 3 3 3 4 4 3 4 3
4 4 3 3 3 3 2 2 2 2 2 2 1 1 2 1 3 2 3 3 3 3 2 2 1 2 1 3 4 2 2 3 2 2 1 1 1 2 2 2 2 3 3
4 4 3 3 2 2 2 2 2 2 2 2 2 2 1 2 1 2 2 3 4 3 3 1 1 2 2 3 2 2 4 5 3 2 2 2 2 1 1 2 2 3 3
4 4 3 2 2 2 2 2 3 3 2 2 2 2 2 2 2 4 4 4 4 3 2 1 0 2 4 4 4 4 5 3 3 2 2 2 2 1 2 2 2 3 3
4 4 4 3 2 2 2 2 2 2 2 2 2 2 2 2 2 2 3 3 4 3 2 2 5 5 4 2 3 3 3 2 3 3 2 2 2 1 2 2 2 2 2
4 3 4 3 2 1 1 1 2 1 1 2 2 2 2 2 1 2 2 2 2 1 2 2 3 3 3 2 2 2 2 2 2 3 3 3 2 2 2 2 3 3 4
4 3 3 3 3 3 2 1 2 0 2 1 2 3 2 1 1 1 1 1 2 2 3 3 3 3 3 3 2 2 2 3 3 3 3 3 3 3 3 3 4 4 4
4 3 3 3 3 3 3 3 2 2 3 3 2 2 2 2 2 3 4 4 3 3 4 4 4 3 3 3 3 3 3 3 3 3 4 4 4 4 4 4 4 4 5
5 4 4 4 3 3 3 3 3 2 2 2 3 4 4 3 3 3 3 3 3 4 5 5 4 4 4 4 4 4 3 3 3 3 4 4 4 4 4 4 4 5 5
4 4 4 4 4 4 3 3 3 3 3 3 2 2 4 4 4 3 4 3 4 4 5 5 5 5 4 4 4 4 4 3 3 3 4 4 5 5 5 5 5 5 6
4 4 4 4 4 3 3 3 3 3 3 3 3 2 1 2 2 2 3 3 4 5 5 5 5 5 5 4 4 4 4 4 4 4 4 4 5 5 5 6 6 6 6
4 4 6 5 4 4 3 3 3 3 3 3 3 2 3 3 3 3 3 3 4 4 4 5 4 5 4 4 4 4 5 4 4 4 4 4 5 5 6 6 6 6 6
3 3 3 4 3 3 3 3 4 4 4 4 4 2 3 4 4 3 3 3 3 4 4 4 4 4 4 4 4 4 4 4 4 4 5 5 5 5 6 6 6 6 6
3 3 3 3 3 4 4 4 4 4 4 4 4 3 3 4 4 4 4 4 3 4 4 4 4 4 3 3 3 4 4 4 4 4 5 5 5 5 5 5 6 6 6
3 3 3 3 4 3 3 4 3 4 4 4 4 4 4 4 4 4 4 4 4 4 4 4 4 4 5 4 4 4 4 5 6 5 6 6 6 5 5 5 6 6 6
2 2 3 3 3 3 3 3 3 4 4 4 4 4 4 4 4 4 4 4 5 4 4 4 4 4 5 5 4 4 3 4 6 6 6 5 6 6 5 6 5 6 6
2 2 2 3 3 3 3 3 3 3 4 4 4 4 4 4 4 4 4 4 4 4 4 4 4 5 5 5 4 3 2 3 4 7 7 5 5 5 5 5 6 5 5
Wind_Direction
179 178 180 181 183 192 199 200 202 217 218 223 223 227 232 238 244 251 263 263 261 261 258 254 260 275 270 257 246 245 241 232 242 260 179 136 173 239 168 223 207 184 148
179 175 175 175 178 187 186 187 189 205 219 224 228 225 230 232 241 251 257 261 264 264 264 264 266 260 259 260 250 241 242 235 237 239 237 214 190 202 209 246 241 212 179
176 171 169 173 175 184 185 182 189 201 204 214 219 226 236 238 242 249 258 267 265 267 268 262 259 258 259 256 241 235 236 234 226 235 235 220 231 213 227 227 223 246 244
170 167 166 172 179 183 185 182 192 197 198 207 213 226 233 240 248 247 249 259 261 264 263 260 259 259 263 256 238 230 232 231 224 230 230 218 211 209 224 230 220 228 254
171 169 168 172 178 181 182 184 190 197 197 200 209 218 223 230 246 267 245 234 240 245 245 257 268 274 331 293 279 254 236 233 229 225 225 220 223 229 241 246 248 249 247
172 168 165 169 174 176 178 177 183 189 193 195 203 207 221 236 67 8 298 243 237 238 241 254 240 210 193 211 247 288 290 256 250 248 247 241 239 244 259 260 260 264 268
165 163 163 170 174 175 175 172 177 180 179 189 197 205 208 112 90 46 301 275 242 236 239 259 277 305 237 238 199 203 230 262 272 264 263 270 261 250 255 256 262 268 275
161 161 163 171 174 170 171 174 180 182 183 194 202 200 200 138 121 159 258 240 235 230 230 251 270 305 349 307 261 229 236 236 242 239 258 271 277 279 254 247 249 250 251
162 164 170 173 170 168 173 177 179 185 194 205 207 209 208 177 156 189 253 225 203 187 186 111 265 106 17 317 259 240 239 231 187 185 222 248 299 284 278 262 246 246 251
170 171 168 174 173 169 172 184 190 199 208 215 207 217 222 223 163 216 259 221 193 199 186 172 101 63 337 312 255 249 250 265 272 201 199 211 221 216 226 254 265 262 268
165 158 153 158 163 166 171 181 195 209 214 218 196 208 219 226 168 189 273 243 223 221 218 207 149 132 244 295 283 279 294 284 254 234 211 211 214 227 233 247 279 281 283
147 144 145 151 163 155 167 190 197 198 204 208 199 214 223 209 196 185 225 269 288 242 244 239 134 162 227 257 264 278 280 276 255 246 239 245 246 255 261 264 269 276 287
145 142 141 147 159 171 183 192 204 208 220 227 222 224 229 225 186 171 193 221 262 252 262 41 329 236 237 219 202 225 244 254 258 259 261 262 265 269 263 241 241 251 266
155 150 146 149 170 183 211 220 226 225 231 235 236 242 235 232 250 220 208 201 206 222 235 191 201 219 234 243 210 217 239 259 264 265 267 268 265 254 257 256 251 247 254
166 164 165 169 172 194 221 266 252 275 283 272 270 262 257 248 274 343 289 259 272 287 258 236 235 230 233 233 237 237 250 254 259 266 263 257 253 250 259 264 262 257 254
174 175 182 187 182 201 206 210 90 140 80 57 343 314 318 354 10 250 251 287 312 293 257 244 248 255 255 252 252 253 257 266 266 266 264 256 252 253 257 258 257 257 257
184 184 193 197 198 209 213 219 217 177 176 192 207 256 270 271 259 246 238 234 239 224 243 254 254 261 266 266 262 263 267 267 270 270 268 262 257 255 254 254 255 258 261
194 187 196 208 212 218 219 222 226 237 232 222 202 204 218 227 237 245 226 207 226 225 255 260 261 265 269 271 267 262 265 266 267 274 273 268 264 259 257 257 254 258 264
203 202 203 215 219 221 223 226 229 237 247 253 254 196 194 205 205 213 200 230 250 248 253 262 266 268 270 270 271 269 266 263 269 272 272 274 270 262 257 258 259 262 266
200 201 211 219 221 222 223 231 239 246 256 264 267 278 228 212 240 208 210 240 253 258 260 262 267 269 269 273 272 265 261 260 259 259 269 273 272 266 259 258 259 256 256
201 194 191 215 226 227 229 235 241 249 254 261 264 275 291 270 265 261 252 246 253 262 264 266 263 262 265 272 271 269 267 266 269 272 271 272 272 268 260 257 257 258 260
214 209 207 217 225 231 237 239 242 244 248 255 263 243 217 253 270 274 269 266 269 271 271 266 263 264 267 266 268 269 269 274 280 283 280 276 274 271 265 259 257 258 260
221 219 214 216 222 221 234 244 246 248 252 255 259 263 253 258 262 268 270 270 271 269 269 263 261 265 272 273 271 270 273 280 286 290 283 277 274 270 267 266 265 266 262
226 229 228 222 225 231 234 240 247 252 258 262 264 265 268 264 262 266 271 271 268 264 263 263 267 270 273 273 269 270 285 298 293 283 275 274 274 273 269 270 270 271 268
236 231 236 238 237 234 235 241 251 257 260 260 263 265 268 271 270 269 271 274 271 267 264 262 270 274 274 273 281 295 327 322 300 291 274 265 267 270 272 273 272 270 268
258 253 253 253 249 247 245 247 253 260 265 269 270 272 276 277 276 273 272 273 273 268 267 268 269 273 276 274 282 303 296 297 295 292 282 267 264 266 268 267 268 269 272
Height
1514 1516 1518 1520 1521 1522 1523 1523 1523 1523 1524 1523 1523 1523 1523 1522 1522 1522 1522 1521 1521 1521 1521 1520 1520 1519 1520 1520 1520 1520 1520 1521 1521 1522 1522 1521 1521 1521 1521 1521 1521 1520 1519
1512 1514 1516 1517 1519 1520 1521 1521 1521 1521 1522 1521 1521 1521 1521 1520 1520 1520 1520 1519 1519 1519 1519 1518 1518 1518 1517 1517 1517 1518 1518 1518 1519 1519 1519 1519 1519 1519 1519 1519 1519 1519 1518
1510 1511 1513 1515 1516 1517 1518 1518 1519 1519 1519 1519 1519 1519 1518 1518 1517 1517 1517 1517 1517 1517 1517 1516 1516 1516 1515 1516 1515 1515 1516 1516 1516 1516 1517 1517 1517 1517 1517 1517 1517 1516 1516
1508 1509 1511 1512 1514 1515 1516 1517 1517 1517 1517 1517 1517 1517 1516 1516 1515 1515 1515 1515 1515 1515 1515 1514 1514 1514 1513 1513 1513 1513 1513 1513 1514 1514 1514 1515 1515 1515 1515 1515 1515 1515 1514
1506 1507 1509 1510 1512 1513 1514 1515 1515 1516 1516 1515 1515 1515 1514 1514 1513 1513 1512 1513 1513 1513 1513 1513 1512 1512 1511 1511 1512 1511 1511 1511 1512 1512 1512 1512 1513 1513 1513 1513 1513 1512 1512
1504 1506 1507 1508 1510 1511 1512 1513 1513 1514 1514 1513 1513 1513 1513 1512 1511 1510 1510 1511 1511 1511 1511 1511 1510 1510 1509 1509 1509 1509 1509 1509 1510 1510 1510 1510 1510 1510 1510 1510 1510 1510 1510
1503 1504 1506 1507 1508 1509 1510 1511 1511 1512 1512 1511 1511 1511 1511 1510 1509 1508 1508 1509 1509 1509 1509 1509 1509 1508 1508 1507 1507 1507 1507 1507 1507 1508 1508 1507 1508 1508 1508 1508 1507 1507 1507
1501 1503 1504 1505 1506 1507 1508 1509 1509 1510 1510 1510 1510 1509 1509 1509 1508 1507 1507 1507 1508 1508 1508 1507 1507 1506 1506 1506 1506 1505 1505 1505 1505 1505 1505 1504 1505 1505 1505 1505 1505 1505 1504
1500 1501 1502 1504 1505 1505 1506 1506 1507 1508 1508 1508 1508 1508 1507 1507 1506 1506 1506 1506 1506 1506 1506 1506 1505 1505 1504 1504 1504 1504 1503 1503 1503 1502 1502 1502 1502 1502 1502 1503 1503 1503 1503
1498 1499 1501 1502 1503 1503 1504 1505 1505 1506 1506 1506 1506 1506 1506 1505 1505 1505 1505 1505 1505 1505 1504 1504 1503 1503 1503 1503 1503 1502 1502 1501 1501 1501 1500 1500 1500 1500 1500 1500 1501 1501 1500
1496 1498 1499 1500 1501 1502 1503 1503 1503 1504 1505 1505 1504 1504 1504 1503 1503 1503 1503 1503 1503 1503 1503 1503 1502 1501 1501 1501 1501 1500 1500 1499 1500 1499 1499 1499 1499 1498 1498 1498 1498 1498 1498
1494 1496 1497 1499 1500 1501 1501 1502 1502 1503 1503 1503 1503 1502 1502 1502 1501 1501 1501 1501 1501 1501 1501 1501 1500 1500 1499 1499 1499 1498 1498 1498 1498 1498 1498 1498 1497 1497 1496 1496 1495 1495 1495
1492 1493 1496 1497 1499 1500 1500 1500 1501 1501 1502 1502 1502 1501 1501 1500 1500 1499 1499 1499 1499 1499 1499 1498 1498 1498 1497 1497 1497 1496 1496 1497 1496 1496 1496 1495 1495 1494 1494 1493 1492 1492 1492
1491 1492 1494 1496 1498 1499 1499 1500 1500 1500 1500 1500 1500 1500 1499 1499 1499 1498 1498 1497 1497 1497 1497 1496 1496 1496 1495 1495 1495 1495 1495 1495 1495 1494 1494 1493 1493 1492 1492 1491 1491 1490 1490
1490 1491 1493 1495 1496 1497 1497 1498 1498 1498 1498 1498 1498 1498 1498 1497 1497 1496 1496 1496 1496 1495 1495 1495 1495 1494 1494 1494 1494 1493 1493 1493 1492 1492 1492 1491 1490 1490 1489 1489 1488 1488 1488
1488 1489 1491 1492 1494 1495 1496 1496 1496 1496 1496 1495 1495 1495 1495 1495 1494 1493 1493 1493 1493 1493 1493 1493 1493 1493 1492 1492 1492 1491 1491 1491 1490 1490 1489 1488 1488 1487 1487 1486 1486 1485 1485
1486 1488 1489 1491 1492 1493 1494 1494 1494 1494 1493 1493 1493 1492 1492 1491 1491 1491 1490 1490 1490 1490 1490 1490 1490 1490 1490 1490 1489 1489 1489 1488 1488 1487 1487 1486 1486 1485 1484 1484 1483 1483 1482
1485 1486 1487 1488 1490 1491 1491 1491 1492 1492 1491 1491 1490 1490 1489 1489 1489 1488 1488 1488 1488 1488 1488 1488 1488 1488 1487 1487 1487 1486 1486 1485 1485 1484 1484 1484 1483 1482 1482 1481 1480 1480 1479
1483 1484 1485 1486 1487 1488 1489 1489 1489 1489 1489 1489 1489 1488 1487 1487 1486 1486 1485 1485 1486 1486 1486 1486 1486 1485 1485 1484 1484 1484 1483 1482 1482 1481 1481 1480 1480 1479 1478 1478 1477 1477 1476
1480 1481 1482 1484 1485 1485 1486 1486 1487 1487 1487 1486 1486 1486 1485 1484 1484 1484 1483 1483 1483 1484 1484 1484 1483 1483 1483 1482 1481 1481 1480 1479 1479 1478 1478 1477 1477 1476 1475 1475 1474 1473 1473
1478 1479 1479 1481 1482 1482 1483 1483 1484 1484 1484 1484 1484 1483 1482 1482 1482 1482 1481 1481 1481 1481 1481 1481 1480 1480 1479 1479 1479 1478 1477 1477 1476 1475 1474 1473 1473 1472 1471 1471 1470 1470 1469
1476 1477 1477 1478 1479 1480 1480 1480 1481 1481 1481 1481 1481 1480 1479 1479 1479 1479 1479 1478 1478 1478 1477 1477 1477 1476 1476 1475 1475 1474 1474 1473 1473 1472 1471 1470 1469 1468 1467 1467 1466 1466 1465
1473 1474 1475 1476 1476 1476 1477 1477 1478 1478 1478 1478 1478 1477 1477 1477 1476 1476 1476 1475 1475 1474 1474 1474 1473 1473 1472 1472 1471 1471 1471 1470 1469 1468 1467 1466 1465 1464 1463 1463 1462 1462 1461
1471 1472 1472 1473 1474 1474 1474 1474 1474 1474 1475 1475 1475 1474 1474 1474 1473 1473 1472 1472 1471 1471 1470 1470 1470 1469 1469 1468 1468 1467 1467 1466 1465 1464 1464 1463 1462 1461 1460 1459 1458 1458 1457
1469 1469 1470 1471 1471 1471 1471 1471 1471 1471 1472 1471 1471 1471 1471 1470 1470 1469 1469 1468 1468 1467 1467 1466 1466 1465 1465 1464 1464 1463 1462 1462 1461 1460 1459 1459 1458 1457 1457 1456 1455 1454 1453
1467 1467 1467 1468 1468 1468 1468 1468 1468 1468 1468 1468 1468 1468 1467 1467 1466 1466 1465 1465 1464 1464 1463 1462 1462 1461 1461 1460 1459 1458 1458 1457 1457 1456 1456 1455 1455 1454 1453 1453 1452 1451 1450